OAL414 LGAV-LGKR

Flight info

Callsign OAL414
Flight time 0h 51m
Altitude 24000
Route KOR L53 PARNA
Aircraft DH8D/M-SDE2E3FGRY/H

Departure

Time 2026-05-07 12:30
Airport Athens Eleftherios Venizelos International Airport (LGAV)

Arrival

Time 2026-05-07 13:21
Airport Corfu Ioannis Kapodistrias International Airport (LGKR)
Time Latitude Longitude Altitude Speed Heading
2026-05-07 11:59 37.94090 23.95165 318 ft 0 kts 38°
2026-05-07 12:17 37.94090 23.95166 318 ft 0 kts 38°
2026-05-07 12:18 37.94084 23.95160 318 ft 2 kts 38°
2026-05-07 12:18 37.94072 23.95148 318 ft 2 kts 38°
2026-05-07 12:18 37.94060 23.95136 318 ft 2 kts 40°
2026-05-07 12:18 37.94051 23.95122 318 ft 2 kts 66°
2026-05-07 12:19 37.94047 23.95104 318 ft 2 kts 89°
2026-05-07 12:19 37.94050 23.95085 318 ft 2 kts 113°
2026-05-07 12:19 37.94058 23.95069 318 ft 1 kts 129°
2026-05-07 12:19 37.94060 23.95066 318 ft 0 kts 128°
2026-05-07 12:22 37.94060 23.95067 318 ft 0 kts 128°
2026-05-07 12:23 37.94059 23.95067 318 ft 0 kts 128°
2026-05-07 12:24 37.94052 23.95079 318 ft 5 kts 128°
2026-05-07 12:24 37.94009 23.95150 318 ft 14 kts 127°
2026-05-07 12:25 37.93942 23.95265 318 ft 14 kts 127°
2026-05-07 12:25 37.93883 23.95364 318 ft 13 kts 128°
2026-05-07 12:25 37.93854 23.95465 318 ft 12 kts 62°
2026-05-07 12:25 37.93931 23.95547 318 ft 17 kts 36°
2026-05-07 12:26 37.94050 23.95655 318 ft 24 kts 37°
2026-05-07 12:26 37.94186 23.95789 317 ft 23 kts 37°
2026-05-07 12:26 37.94293 23.95888 317 ft 17 kts 37°
2026-05-07 12:26 37.94341 23.95944 317 ft 0 kts 121°
2026-05-07 12:27 37.94340 23.95947 317 ft 0 kts 114°
2026-05-07 12:27 37.94339 23.95949 317 ft 1 kts 112°
2026-05-07 12:27 37.94328 23.95981 317 ft 9 kts 120°
2026-05-07 12:27 37.94305 23.96010 317 ft 9 kts 159°
2026-05-07 12:28 37.94221 23.96009 317 ft 14 kts 188°
2026-05-07 12:28 37.94136 23.95996 317 ft 13 kts 187°
2026-05-07 12:28 37.94088 23.95973 318 ft 0 kts 214°
2026-05-07 12:29 37.94070 23.95957 318 ft 20 kts 215°
2026-05-07 12:29 37.93688 23.95594 318 ft 112 kts 217°
2026-05-07 12:29 37.92913 23.94854 453 ft 152 kts 217°
2026-05-07 12:29 37.91993 23.94015 841 ft 175 kts 213°
2026-05-07 12:30 37.90930 23.93257 1443 ft 185 kts 206°
2026-05-07 12:30 37.89731 23.92497 1992 ft 197 kts 206°
2026-05-07 12:30 37.88498 23.91712 2658 ft 203 kts 206°
2026-05-07 12:30 37.87244 23.90904 3318 ft 208 kts 206°
2026-05-07 12:31 37.85948 23.90040 3975 ft 210 kts 207°
2026-05-07 12:31 37.84694 23.89101 4591 ft 214 kts 219°
2026-05-07 12:31 37.83731 23.87649 5231 ft 217 kts 234°
2026-05-07 12:31 37.82871 23.86059 5828 ft 220 kts 235°
2026-05-07 12:32 37.82024 23.84487 6488 ft 221 kts 236°
2026-05-07 12:32 37.81144 23.82855 7112 ft 222 kts 236°
2026-05-07 12:32 37.80270 23.81234 7648 ft 227 kts 236°
2026-05-07 12:32 37.79390 23.79603 8264 ft 228 kts 237°
2026-05-07 12:33 37.77585 23.76267 9368 ft 233 kts 237°
2026-05-07 12:33 37.76674 23.74587 9922 ft 233 kts 238°
2026-05-07 12:33 37.75753 23.72887 10439 ft 236 kts 238°
2026-05-07 12:34 37.75070 23.71048 10996 ft 230 kts 265°
2026-05-07 12:34 37.75396 23.69240 11805 ft 212 kts 295°
2026-05-07 12:34 37.76055 23.67591 12314 ft 212 kts 296°
2026-05-07 12:34 37.76744 23.65957 12864 ft 210 kts 297°
2026-05-07 12:35 37.77451 23.64347 13320 ft 209 kts 298°
2026-05-07 12:35 37.78176 23.62738 13712 ft 213 kts 298°
2026-05-07 12:35 37.78923 23.61117 14139 ft 214 kts 298°
2026-05-07 12:35 37.79674 23.59509 14579 ft 214 kts 298°
2026-05-07 12:36 37.80439 23.57888 15017 ft 213 kts 298°
2026-05-07 12:36 37.81204 23.56278 15381 ft 217 kts 298°
2026-05-07 12:36 37.81972 23.54671 15794 ft 217 kts 298°
2026-05-07 12:36 37.82756 23.53035 16180 ft 218 kts 298°
2026-05-07 12:37 37.83545 23.51394 16507 ft 221 kts 298°
2026-05-07 12:37 37.84344 23.49738 16918 ft 220 kts 298°
2026-05-07 12:37 37.85143 23.48081 17225 ft 222 kts 298°
2026-05-07 12:37 37.85947 23.46415 17567 ft 223 kts 298°
2026-05-07 12:38 37.86755 23.44741 17920 ft 224 kts 298°
2026-05-07 12:38 37.87577 23.43040 18260 ft 224 kts 298°
2026-05-07 12:38 37.88383 23.41372 18634 ft 222 kts 298°
2026-05-07 12:38 37.89190 23.39702 18924 ft 225 kts 298°
2026-05-07 12:39 37.90015 23.37993 19232 ft 225 kts 298°
2026-05-07 12:39 37.90825 23.36313 19512 ft 226 kts 298°
2026-05-07 12:39 37.91647 23.34610 19813 ft 226 kts 298°
2026-05-07 12:39 37.92455 23.32937 20178 ft 224 kts 297°
2026-05-07 12:40 37.93268 23.31252 20511 ft 223 kts 298°
2026-05-07 12:40 37.94072 23.29584 20801 ft 222 kts 297°
2026-05-07 12:40 37.94867 23.27933 21096 ft 221 kts 297°
2026-05-07 12:40 37.95665 23.26279 21429 ft 219 kts 298°
2026-05-07 12:41 37.96462 23.24623 21692 ft 218 kts 297°
2026-05-07 12:41 37.97251 23.22984 21897 ft 219 kts 298°
2026-05-07 12:41 37.98037 23.21351 22135 ft 219 kts 298°
2026-05-07 12:41 37.98831 23.19697 22356 ft 219 kts 297°
2026-05-07 12:42 37.99625 23.18044 22532 ft 220 kts 298°
2026-05-07 12:42 38.00421 23.16386 22747 ft 221 kts 298°
2026-05-07 12:42 38.01216 23.14729 22964 ft 219 kts 298°
2026-05-07 12:42 38.02008 23.13076 23116 ft 220 kts 298°
2026-05-07 12:43 38.02776 23.11483 23581 ft 208 kts 297°
2026-05-07 12:43 38.03536 23.09896 23717 ft 208 kts 297°
2026-05-07 12:43 38.04284 23.08333 23893 ft 209 kts 297°
2026-05-07 12:43 38.05055 23.06720 23951 ft 215 kts 298°
2026-05-07 12:44 38.05846 23.05065 23972 ft 223 kts 298°
2026-05-07 12:44 38.06657 23.03365 23974 ft 231 kts 298°
2026-05-07 12:44 38.07507 23.01582 23978 ft 238 kts 298°
2026-05-07 12:44 38.08380 22.99749 23973 ft 246 kts 298°
2026-05-07 12:45 38.09275 22.97872 23969 ft 253 kts 298°
2026-05-07 12:45 38.10194 22.95944 23962 ft 261 kts 298°
2026-05-07 12:45 38.11155 22.93924 23956 ft 267 kts 299°
2026-05-07 12:45 38.12007 22.92135 23953 ft 273 kts 298°
2026-05-07 12:46 38.12996 22.90057 23946 ft 278 kts 299°
2026-05-07 12:46 38.13999 22.87946 23945 ft 283 kts 298°
2026-05-07 12:46 38.15035 22.85768 23936 ft 287 kts 298°
2026-05-07 12:46 38.16065 22.83599 23933 ft 291 kts 298°
2026-05-07 12:47 38.17118 22.81384 23924 ft 294 kts 298°
2026-05-07 12:47 38.18177 22.79150 23922 ft 296 kts 298°
2026-05-07 12:47 38.19244 22.76902 23915 ft 298 kts 298°
2026-05-07 12:47 38.20321 22.74630 23908 ft 300 kts 298°
2026-05-07 12:48 38.21397 22.72359 23905 ft 301 kts 298°
2026-05-07 12:48 38.22469 22.70094 23913 ft 302 kts 298°
2026-05-07 12:48 38.23566 22.67775 23916 ft 303 kts 298°
2026-05-07 12:48 38.24646 22.65489 23913 ft 304 kts 299°
2026-05-07 12:49 38.25740 22.63174 23911 ft 305 kts 298°
2026-05-07 12:49 38.26836 22.60854 23915 ft 305 kts 298°
2026-05-07 12:49 38.27914 22.58566 23927 ft 306 kts 298°
2026-05-07 12:49 38.29019 22.56222 23923 ft 306 kts 298°
2026-05-07 12:50 38.30103 22.53922 23932 ft 306 kts 298°
2026-05-07 12:50 38.31205 22.51582 23937 ft 306 kts 299°
2026-05-07 12:50 38.32304 22.49247 23942 ft 306 kts 299°
2026-05-07 12:50 38.33388 22.46938 23951 ft 306 kts 299°
2026-05-07 12:51 38.34483 22.44609 23951 ft 306 kts 298°
2026-05-07 12:51 38.35569 22.42294 23965 ft 306 kts 299°
2026-05-07 12:51 38.36663 22.39961 23972 ft 306 kts 299°
2026-05-07 12:51 38.37756 22.37630 23977 ft 306 kts 298°
2026-05-07 12:52 38.38832 22.35333 23976 ft 305 kts 298°
2026-05-07 12:52 38.39921 22.33007 23982 ft 305 kts 298°
2026-05-07 12:52 38.41014 22.30669 23994 ft 305 kts 298°
2026-05-07 12:52 38.42086 22.28376 23994 ft 305 kts 298°
2026-05-07 12:53 38.43172 22.26052 24000 ft 305 kts 298°
2026-05-07 12:53 38.44260 22.23718 24006 ft 304 kts 298°
2026-05-07 12:53 38.45337 22.21409 24017 ft 304 kts 298°
2026-05-07 12:53 38.46411 22.19105 24008 ft 304 kts 298°
2026-05-07 12:54 38.47499 22.16768 24006 ft 304 kts 298°
2026-05-07 12:54 38.48573 22.14461 24004 ft 304 kts 298°
2026-05-07 12:54 38.49649 22.12146 24003 ft 304 kts 298°
2026-05-07 12:54 38.50735 22.09810 24004 ft 304 kts 298°
2026-05-07 12:55 38.51804 22.07509 24132 ft 299 kts 298°
2026-05-07 12:55 38.52862 22.05229 24150 ft 299 kts 298°
2026-05-07 12:55 38.53923 22.02942 24153 ft 299 kts 298°
2026-05-07 12:55 38.54978 22.00664 24150 ft 300 kts 298°
2026-05-07 12:56 38.56047 21.98354 24139 ft 300 kts 298°
2026-05-07 12:56 38.57101 21.96076 24145 ft 300 kts 298°
2026-05-07 12:56 38.58158 21.93792 24153 ft 300 kts 298°
2026-05-07 12:56 38.59231 21.91468 24150 ft 301 kts 298°
2026-05-07 12:57 38.60289 21.89178 24156 ft 300 kts 298°
2026-05-07 12:57 38.61343 21.86892 24156 ft 300 kts 298°
2026-05-07 12:57 38.62404 21.84591 24154 ft 300 kts 298°
2026-05-07 12:57 38.63457 21.82305 24147 ft 300 kts 298°
2026-05-07 12:58 38.64522 21.79993 24143 ft 300 kts 298°
2026-05-07 12:58 38.65580 21.77692 24145 ft 301 kts 298°
2026-05-07 12:58 38.66634 21.75400 24152 ft 301 kts 298°
2026-05-07 12:58 38.67703 21.73072 24148 ft 301 kts 298°
2026-05-07 12:59 38.68761 21.70766 24150 ft 301 kts 298°
2026-05-07 12:59 38.69765 21.68405 24154 ft 300 kts 294°
2026-05-07 12:59 38.70658 21.66006 24149 ft 300 kts 294°
2026-05-07 12:59 38.71543 21.63595 24140 ft 301 kts 294°
2026-05-07 13:00 38.72438 21.61160 24134 ft 301 kts 294°
2026-05-07 13:00 38.73329 21.58738 24137 ft 302 kts 294°
2026-05-07 13:00 38.74226 21.56300 24135 ft 302 kts 294°
2026-05-07 13:00 38.75112 21.53892 24124 ft 302 kts 293°
2026-05-07 13:01 38.76014 21.51440 24123 ft 303 kts 294°
2026-05-07 13:01 38.76907 21.49013 24124 ft 303 kts 294°
2026-05-07 13:01 38.77809 21.46561 24112 ft 302 kts 294°
2026-05-07 13:01 38.78699 21.44139 24112 ft 302 kts 294°
2026-05-07 13:02 38.79597 21.41694 24105 ft 302 kts 293°
2026-05-07 13:02 38.80495 21.39247 24101 ft 302 kts 294°
2026-05-07 13:02 38.81380 21.36835 24108 ft 302 kts 293°
2026-05-07 13:02 38.82279 21.34382 24107 ft 302 kts 293°
2026-05-07 13:03 38.83167 21.31958 24109 ft 303 kts 293°
2026-05-07 13:03 38.84070 21.29489 24107 ft 304 kts 293°
2026-05-07 13:03 38.84964 21.27043 24107 ft 304 kts 293°
2026-05-07 13:03 38.85870 21.24563 24108 ft 305 kts 293°
2026-05-07 13:04 38.86762 21.22123 24103 ft 305 kts 292°
2026-05-07 13:04 38.87667 21.19641 24100 ft 305 kts 292°
2026-05-07 13:04 38.88559 21.17194 24096 ft 305 kts 292°
2026-05-07 13:04 38.89469 21.14695 24095 ft 305 kts 293°
2026-05-07 13:05 38.90362 21.12239 24088 ft 306 kts 292°
2026-05-07 13:05 38.91256 21.09782 24090 ft 306 kts 292°
2026-05-07 13:05 38.92149 21.07323 24093 ft 305 kts 292°
2026-05-07 13:05 38.93046 21.04852 24098 ft 305 kts 293°
2026-05-07 13:06 38.93950 21.02360 24087 ft 306 kts 292°
2026-05-07 13:06 38.94837 20.99910 24070 ft 306 kts 293°
2026-05-07 13:06 38.95737 20.97424 24064 ft 306 kts 292°
2026-05-07 13:06 38.96633 20.94950 24072 ft 306 kts 292°
2026-05-07 13:07 38.97535 20.92453 24065 ft 306 kts 292°
2026-05-07 13:07 38.98428 20.89981 24064 ft 305 kts 292°
2026-05-07 13:07 38.99322 20.87505 24004 ft 308 kts 292°
2026-05-07 13:07 39.00227 20.84990 23764 ft 312 kts 292°
2026-05-07 13:08 39.01152 20.82420 23513 ft 318 kts 292°
2026-05-07 13:08 39.02086 20.79826 23259 ft 323 kts 292°
2026-05-07 13:08 39.03027 20.77208 23008 ft 327 kts 292°
2026-05-07 13:08 39.03986 20.74540 22755 ft 329 kts 292°
2026-05-07 13:09 39.04936 20.71890 22502 ft 328 kts 292°
2026-05-07 13:09 39.05900 20.69205 22249 ft 328 kts 292°
2026-05-07 13:09 39.06845 20.66565 22001 ft 328 kts 292°
2026-05-07 13:09 39.07802 20.63893 21749 ft 328 kts 292°
2026-05-07 13:10 39.08752 20.61234 21501 ft 327 kts 292°
2026-05-07 13:10 39.09697 20.58591 21249 ft 328 kts 292°
2026-05-07 13:10 39.10647 20.55926 21008 ft 327 kts 292°
2026-05-07 13:10 39.11607 20.53237 20755 ft 327 kts 292°
2026-05-07 13:11 39.12546 20.50602 20498 ft 328 kts 292°
2026-05-07 13:11 39.13501 20.47919 20262 ft 328 kts 292°
2026-05-07 13:11 39.14445 20.45265 20005 ft 328 kts 292°
2026-05-07 13:11 39.15398 20.42581 19600 ft 333 kts 291°
2026-05-07 13:12 39.16360 20.39870 19106 ft 338 kts 291°
2026-05-07 13:12 39.17347 20.37086 18601 ft 340 kts 291°
2026-05-07 13:12 39.18318 20.34343 18101 ft 336 kts 290°
2026-05-07 13:12 39.19281 20.31620 17617 ft 332 kts 290°
2026-05-07 13:13 39.20224 20.28955 17130 ft 330 kts 290°
2026-05-07 13:13 39.21166 20.26291 16637 ft 323 kts 290°
2026-05-07 13:13 39.22073 20.23716 16112 ft 311 kts 289°
2026-05-07 13:13 39.22931 20.21265 16043 ft 283 kts 289°
2026-05-07 13:14 39.23706 20.19003 15546 ft 277 kts 288°
2026-05-07 13:14 39.24490 20.16770 15008 ft 271 kts 289°
2026-05-07 13:14 39.25256 20.14609 14623 ft 261 kts 288°
2026-05-07 13:14 39.25999 20.12514 14247 ft 253 kts 288°
2026-05-07 13:15 39.26712 20.10494 13868 ft 245 kts 288°
2026-05-07 13:15 39.27414 20.08505 13485 ft 238 kts 288°
2026-05-07 13:15 39.28085 20.06598 13116 ft 231 kts 288°
2026-05-07 13:15 39.28933 20.04840 12575 ft 239 kts 316°
2026-05-07 13:16 39.30369 20.03646 11340 ft 272 kts 342°
2026-05-07 13:16 39.32180 20.02754 10116 ft 290 kts 341°
2026-05-07 13:16 39.34131 20.01891 9158 ft 296 kts 326°
2026-05-07 13:16 39.35904 20.00678 8088 ft 297 kts 316°
2026-05-07 13:17 39.37608 19.99276 7392 ft 283 kts 316°
2026-05-07 13:17 39.39270 19.98024 6748 ft 274 kts 322°
2026-05-07 13:17 39.40907 19.96876 6191 ft 253 kts 317°
2026-05-07 13:17 39.42479 19.96038 5447 ft 241 kts 352°
2026-05-07 13:18 39.44111 19.95616 4657 ft 241 kts 348°
2026-05-07 13:18 39.45710 19.95168 4007 ft 234 kts 348°
2026-05-07 13:18 39.47298 19.94730 3312 ft 231 kts 348°
2026-05-07 13:18 39.48853 19.94242 2611 ft 229 kts 346°
2026-05-07 13:19 39.50355 19.93743 2045 ft 220 kts 348°
2026-05-07 13:19 39.51804 19.93360 1616 ft 207 kts 351°
2026-05-07 13:19 39.53189 19.93015 1192 ft 195 kts 349°
2026-05-07 13:19 39.54444 19.92696 969 ft 174 kts 349°
2026-05-07 13:20 39.55588 19.92388 717 ft 161 kts 349°
2026-05-07 13:20 39.56632 19.92116 490 ft 144 kts 351°
2026-05-07 13:20 39.57581 19.91885 317 ft 138 kts 352°
2026-05-07 13:20 39.58530 19.91645 179 ft 138 kts 351°
2026-05-07 13:21 39.59444 19.91403 8 ft 127 kts 350°
2026-05-07 13:21 39.60233 19.91202 3 ft 98 kts 350°
2026-05-07 13:21 39.60669 19.91090 4 ft 44 kts 349°
2026-05-07 13:21 39.60909 19.91026 10 ft 25 kts 347°
2026-05-07 13:22 39.61024 19.91031 12 ft 12 kts 43°
2026-05-07 13:22 39.61041 19.91115 12 ft 8 kts 125°
2026-05-07 13:22 39.60985 19.91139 10 ft 8 kts 168°
2026-05-07 13:22 39.60921 19.91156 8 ft 9 kts 169°
2026-05-07 13:23 39.60860 19.91172 7 ft 8 kts 167°